,,,PA_Meas_PMT16A,,PR_Meas_QMR101_102,,RH_Meas_QMH101,,SR_Meas_QMS101,,TA_Meas_QMH101,,GenWind,,GenWind,
date,time,status,PA,status,PR,status,RH,status,SR,status,TA,status,DirAvg,status,SpdAvg,
2009-03-04, 00:00:04,VALID,1000.59,VALID,0,VALID,90.8154,VALID,0,VALID,22.8835,VALID,85,VALID,0,
2009-03-04, 00:01:04,VALID,1000.58,VALID,0,VALID,91.0366,VALID,0,VALID,22.8445,VALID,85,VALID,0,
2009-03-04, 00:02:04,VALID,1000.55,VALID,0,VALID,91.1358,VALID,0,VALID,22.8037,VALID,85,VALID,0.125391,
2009-03-04, 00:03:04,VALID,1000.56,VALID,0,VALID,91.174,VALID,0,VALID,22.786,VALID,85,VALID,0,
2009-03-04, 00:04:04,VALID,1000.53,VALID,0,VALID,91.2808,VALID,0,VALID,22.7469,VALID,85,VALID,0,
2009-03-04, 00:05:04,VALID,1000.49,VALID,0,VALID,91.5783,VALID,0,VALID,22.7079,VALID,85,VALID,0,
2009-03-04, 00:06:04,VALID,1000.49,VALID,0,VALID,91.6241,VALID,0,VALID,22.6884,VALID,85,VALID,0.0699219,
2009-03-04, 00:07:04,VALID,1000.48,VALID,0,VALID,92.059,VALID,0,VALID,22.6689,VALID,85,VALID,0,
2009-03-04, 00:08:04,VALID,1000.43,VALID,0,VALID,92.2955,VALID,0,VALID,22.6689,VALID,85,VALID,0.178516,
2009-03-04, 00:09:04,VALID,1000.43,VALID,0,VALID,92.3031,VALID,0,VALID,22.6884,VALID,85,VALID,0.235156,
2009-03-04, 00:10:04,VALID,1000.39,VALID,0,VALID,92.4405,VALID,0,VALID,22.7096,VALID,85,VALID,0.29375,
2009-03-04, 00:11:04,VALID,1000.36,VALID,0,VALID,92.41,VALID,0,VALID,22.7079,VALID,85,VALID,0.336328,
2009-03-04, 00:12:04,VALID,1000.32,VALID,0,VALID,92.3489,VALID,0,VALID,22.7079,VALID,85,VALID,0.364844,
2009-03-04, 00:13:04,VALID,1000.31,VALID,0,VALID,92.3489,VALID,0,VALID,22.6884,VALID,85,VALID,0.553125,
2009-03-04, 00:14:04,VALID,1000.28,VALID,0,VALID,92.2574,VALID,0,VALID,22.6884,VALID,85,VALID,0.484766,
2009-03-04, 00:15:04,VALID,1000.23,VALID,0,VALID,92.1887,VALID,0,VALID,22.7096,VALID,88,VALID,0.425781,
2009-03-04, 00:16:04,VALID,1000.21,VALID,0,VALID,92.265,VALID,0,VALID,22.7079,VALID,95,VALID,0.320703,
2009-03-04, 00:17:04,VALID,1000.16,VALID,0,VALID,92.265,VALID,0,VALID,22.7292,VALID,95,VALID,0.178906,
2009-03-04, 00:18:04,VALID,1000.11,VALID,0,VALID,92.2421,VALID,0,VALID,22.7079,VALID,95,VALID,0.122656,
2009-03-04, 00:19:04,VALID,1000.1,VALID,0,VALID,92.2879,VALID,0,VALID,22.6689,VALID,95,VALID,0.0988281,
2009-03-04, 00:20:04,VALID,1000.07,VALID,0,VALID,92.326,VALID,0,VALID,22.6494,VALID,95,VALID,0,
2009-03-04, 00:21:04,VALID,1000.06,VALID,0,VALID,92.4863,VALID,0,VALID,22.6689,VALID,95,VALID,0,
2009-03-04, 00:22:04,VALID,1000.06,VALID,0,VALID,92.5549,VALID,0,VALID,22.6299,VALID,95,VALID,0,
2009-03-04, 00:23:04,VALID,1000.03,VALID,0,VALID,92.6617,VALID,0,VALID,22.6299,VALID,96,VALID,0.329688,
2009-03-04, 00:24:04,VALID,1000.04,VALID,0,VALID,92.7304,VALID,0,VALID,22.6511,VALID,96,VALID,0.594531,
2009-03-04, 00:25:04,VALID,999.992,VALID,0,VALID,92.7304,VALID,0,VALID,22.6299,VALID,99,VALID,0.416406,
2009-03-04, 00:26:04,VALID,1000,VALID,0,VALID,92.7685,VALID,0,VALID,22.6299,VALID,99,VALID,0.654297,
2009-03-04, 00:27:04,VALID,999.999,VALID,0,VALID,92.7304,VALID,0,VALID,22.6511,VALID,101,VALID,0.624219,
2009-03-04, 00:28:04,VALID,999.991,VALID,0,VALID,92.7228,VALID,0,VALID,22.6299,VALID,112,VALID,0.567187,
2009-03-04, 00:29:04,VALID,999.972,VALID,0,VALID,92.6923,VALID,0,VALID,22.6494,VALID,112,VALID,0.378516,
2009-03-04, 00:30:04,VALID,999.918,VALID,0,VALID,92.6846,VALID,0,VALID,22.6494,VALID,112,VALID,0.340625,
2009-03-04, 00:31:04,VALID,999.911,VALID,0,VALID,92.6541,VALID,0,VALID,22.6494,VALID,112,VALID,0.230859,
2009-03-04, 00:32:04,VALID,999.886,VALID,0,VALID,92.7228,VALID,0,VALID,22.6494,VALID,112,VALID,0.375,
2009-03-04, 00:33:04,VALID,999.897,VALID,0,VALID,92.6541,VALID,0,VALID,22.6299,VALID,112,VALID,0.276953,
2009-03-04, 00:34:04,VALID,999.888,VALID,0,VALID,92.7457,VALID,0,VALID,22.6299,VALID,112,VALID,0.251172,
2009-03-04, 00:35:04,VALID,999.875,VALID,0,VALID,92.822,VALID,0,VALID,22.6104,VALID,112,VALID,0.167578,
2009-03-04, 00:36:04,VALID,999.869,VALID,0,VALID,92.7304,VALID,0,VALID,22.6316,VALID,112,VALID,0.0304688,
2009-03-04, 00:37:04,VALID,999.867,VALID,0,VALID,92.7685,VALID,0,VALID,22.5714,VALID,112,VALID,0.164453,
2009-03-04, 00:38:04,VALID,999.856,VALID,0,VALID,92.738,VALID,0,VALID,22.5926,VALID,127,VALID,0.472266,
2009-03-04, 00:39:04,VALID,999.829,VALID,0,VALID,92.7304,VALID,0,VALID,22.5714,VALID,135,VALID,0.539063,
2009-03-04, 00:40:04,VALID,999.807,VALID,0,VALID,92.5778,VALID,0,VALID,22.5519,VALID,141,VALID,0.487109,
2009-03-04, 00:41:04,VALID,999.811,VALID,0,VALID,92.4557,VALID,0,VALID,22.5536,VALID,141,VALID,0.406641,
2009-03-04, 00:42:04,VALID,999.824,VALID,0,VALID,92.4405,VALID,0,VALID,22.5323,VALID,141,VALID,0.303906,
2009-03-04, 00:43:04,VALID,999.803,VALID,0,VALID,91.2579,VALID,0,VALID,22.4933,VALID,141,VALID,0.870313,
2009-03-04, 00:44:04,VALID,999.835,VALID,0,VALID,90.35,VALID,0,VALID,22.4543,VALID,134,VALID,0.838672,
2009-03-04, 00:45:04,VALID,999.826,VALID,0,VALID,90.1516,VALID,0,VALID,22.4738,VALID,135,VALID,0.746484,
2009-03-04, 00:46:04,VALID,999.808,VALID,0,VALID,89.8846,VALID,0,VALID,22.4933,VALID,133,VALID,0.626562,
2009-03-04, 00:47:04,VALID,999.771,VALID,0,VALID,89.8159,VALID,0,VALID,22.5128,VALID,130,VALID,0.589063,
2009-03-04, 00:48:04,VALID,999.754,VALID,0,VALID,89.6557,VALID,0,VALID,22.5323,VALID,121,VALID,0.716016,
2009-03-04, 00:49:04,VALID,999.752,VALID,0,VALID,89.4726,VALID,0,VALID,22.5323,VALID,121,VALID,0.707812,
2009-03-04, 00:50:04,VALID,999.737,VALID,0,VALID,89.2437,VALID,0,VALID,22.5519,VALID,120,VALID,0.637891,
2009-03-04, 00:51:04,VALID,999.712,VALID,0,VALID,89.2437,VALID,0,VALID,22.5519,VALID,117,VALID,0.656641,
2009-03-04, 00:52:04,VALID,999.722,VALID,0,VALID,89.0148,VALID,0,VALID,22.5519,VALID,117,VALID,0.704687,
2009-03-04, 00:53:04,VALID,999.66,VALID,0,VALID,89.1292,VALID,0,VALID,22.5714,VALID,117,VALID,0.607813,
2009-03-04, 00:54:04,VALID,999.674,VALID,0,VALID,89.2513,VALID,0,VALID,22.5714,VALID,117,VALID,0.567969,
2009-03-04, 00:55:04,VALID,999.629,VALID,0,VALID,89.32,VALID,0,VALID,22.5714,VALID,116,VALID,0.516406,
2009-03-04, 00:56:04,VALID,999.612,VALID,0,VALID,89.175,VALID,0,VALID,22.5714,VALID,116,VALID,0.621094,
2009-03-04, 00:57:04,VALID,999.597,VALID,0,VALID,89.236,VALID,0,VALID,22.5519,VALID,116,VALID,0.368359,
2009-03-04, 00:58:04,VALID,999.574,VALID,0,VALID,89.3352,VALID,0,VALID,22.5519,VALID,116,VALID,0.164453,
2009-03-04, 00:59:04,VALID,999.575,VALID,0,VALID,89.442,VALID,0,VALID,22.5519,VALID,116,VALID,0.285156,
2009-03-04, 01:00:04,VALID,999.607,VALID,0,VALID,89.4954,VALID,0,VALID,22.5128,VALID,116,VALID,0.34375,
2009-03-04, 01:01:04,VALID,999.598,VALID,0,VALID,89.5336,VALID,0,VALID,22.5128,VALID,105,VALID,0.676953,
2009-03-04, 01:02:04,VALID,999.577,VALID,0,VALID,89.648,VALID,0,VALID,22.5145,VALID,104,VALID,0.644531,
2009-03-04, 01:03:04,VALID,999.586,VALID,0,VALID,89.8311,VALID,0,VALID,22.4933,VALID,102,VALID,0.539063,
2009-03-04, 01:04:04,VALID,999.539,VALID,0,VALID,89.938,VALID,0,VALID,22.4738,VALID,102,VALID,0.423047,
2009-03-04, 01:05:04,VALID,999.544,VALID,0,VALID,90.1516,VALID,0,VALID,22.4933,VALID,102,VALID,0.394141,
2009-03-04, 01:06:04,VALID,999.554,VALID,0,VALID,90.2966,VALID,0,VALID,22.4738,VALID,102,VALID,0.430859,
2009-03-04, 01:07:04,VALID,999.532,VALID,0,VALID,90.3576,VALID,0,VALID,22.4543,VALID,102,VALID,0.589453,
2009-03-04, 01:08:04,VALID,999.527,VALID,0,VALID,90.4186,VALID,0,VALID,22.4543,VALID,102,VALID,0.427734,
2009-03-04, 01:09:04,VALID,999.51,VALID,0,VALID,90.3728,VALID,0,VALID,22.4543,VALID,102,VALID,0.314453,
2009-03-04, 01:10:04,VALID,999.491,VALID,0,VALID,90.411,VALID,0,VALID,22.4543,VALID,102,VALID,0.211719,
2009-03-04, 01:11:04,VALID,999.486,VALID,0,VALID,90.4415,VALID,0,VALID,22.4348,VALID,102,VALID,0.116016,
2009-03-04, 01:12:04,VALID,999.479,VALID,0,VALID,90.4339,VALID,0,VALID,22.4153,VALID,102,VALID,0.178125,
2009-03-04, 01:13:04,VALID,999.46,VALID,0,VALID,90.4186,VALID,0,VALID,22.4153,VALID,102,VALID,0.201172,
2009-03-04, 01:14:04,VALID,999.517,VALID,0,VALID,90.4491,VALID,0,VALID,22.3958,VALID,102,VALID,0.225391,
2009-03-04, 01:15:04,VALID,999.501,VALID,0,VALID,90.7238,VALID,0,VALID,22.4365,VALID,102,VALID,0.286719,
2009-03-04, 01:16:04,VALID,999.502,VALID,0,VALID,90.7009,VALID,0,VALID,22.4348,VALID,102,VALID,0.364453,
2009-03-04, 01:17:04,VALID,999.48,VALID,0,VALID,90.205,VALID,0,VALID,22.4153,VALID,102,VALID,0.628906,
2009-03-04, 01:18:04,VALID,999.451,VALID,0,VALID,90.0753,VALID,0,VALID,22.3941,VALID,102,VALID,0.658203,
2009-03-04, 01:19:04,VALID,999.475,VALID,0,VALID,89.8693,VALID,0,VALID,22.4153,VALID,103,VALID,0.719141,
2009-03-04, 01:20:04,VALID,999.423,VALID,0,VALID,89.7014,VALID,0,VALID,22.4543,VALID,104,VALID,0.521875,
2009-03-04, 01:21:04,VALID,999.403,VALID,0,VALID,89.7167,VALID,0,VALID,22.4543,VALID,107,VALID,0.474219,
2009-03-04, 01:22:04,VALID,999.377,VALID,0,VALID,89.7396,VALID,0,VALID,22.4738,VALID,107,VALID,0.313672,
2009-03-04, 01:23:04,VALID,999.372,VALID,0,VALID,89.6633,VALID,0,VALID,22.4933,VALID,107,VALID,0.210938,
2009-03-04, 01:24:04,VALID,999.337,VALID,0,VALID,89.8159,VALID,0,VALID,22.4933,VALID,107,VALID,0.145313,
2009-03-04, 01:25:04,VALID,999.339,VALID,0,VALID,89.732,VALID,0,VALID,22.4933,VALID,107,VALID,0.102344,
2009-03-04, 01:26:04,VALID,999.331,VALID,0,VALID,89.6709,VALID,0,VALID,22.4738,VALID,107,VALID,0,
2009-03-04, 01:27:04,VALID,999.33,VALID,0,VALID,89.6328,VALID,0,VALID,22.4543,VALID,107,VALID,0,
2009-03-04, 01:28:04,VALID,999.308,VALID,0,VALID,89.6786,VALID,0,VALID,22.4348,VALID,107,VALID,0,
2009-03-04, 01:29:04,VALID,999.293,VALID,0,VALID,89.8311,VALID,0,VALID,22.4365,VALID,107,VALID,0,
2009-03-04, 01:30:04,VALID,999.284,VALID,0,VALID,89.9837,VALID,0,VALID,22.4153,VALID,107,VALID,0,
2009-03-04, 01:31:04,VALID,999.258,VALID,0,VALID,90.0219,VALID,0,VALID,22.3958,VALID,107,VALID,0.152344,
2009-03-04, 01:32:04,VALID,999.216,VALID,0,VALID,90.0448,VALID,0,VALID,22.3763,VALID,107,VALID,0.0734375,
2009-03-04, 01:33:04,VALID,999.193,VALID,0,VALID,90.2203,VALID,0,VALID,22.3975,VALID,107,VALID,0.225,
2009-03-04, 01:34:04,VALID,999.184,VALID,0,VALID,90.3271,VALID,0,VALID,22.3763,VALID,107,VALID,0.236719,
2009-03-04, 01:35:04,VALID,999.151,VALID,0,VALID,90.4034,VALID,0,VALID,22.3568,VALID,107,VALID,0.205078,
2009-03-04, 01:36:04,VALID,999.117,VALID,0,VALID,90.4339,VALID,0,VALID,22.3568,VALID,107,VALID,0,
2009-03-04, 01:37:04,VALID,999.129,VALID,0,VALID,90.4491,VALID,0,VALID,22.3373,VALID,107,VALID,0.166016,
2009-03-04, 01:38:04,VALID,999.131,VALID,0,VALID,90.5026,VALID,0,VALID,22.3178,VALID,107,VALID,0.158203,
2009-03-04, 01:39:04,VALID,999.129,VALID,0,VALID,90.5712,VALID,0,VALID,22.2983,VALID,106,VALID,0.383984,
2009-03-04, 01:40:04,VALID,999.112,VALID,0,VALID,90.5254,VALID,0,VALID,22.3178,VALID,59,VALID,0.676172,
2009-03-04, 01:41:04,VALID,999.112,VALID,0,VALID,90.3957,VALID,0,VALID,22.3373,VALID,55,VALID,0.399219,
2009-03-04, 01:42:04,VALID,999.154,VALID,0,VALID,90.2584,VALID,0,VALID,22.3568,VALID,55,VALID,0.427734,
2009-03-04, 01:43:04,VALID,999.122,VALID,0,VALID,90.144,VALID,0,VALID,22.3763,VALID,42,VALID,0.638281,
2009-03-04, 01:44:04,VALID,999.123,VALID,0,VALID,90.1287,VALID,0,VALID,22.3958,VALID,42,VALID,0.699219,
2009-03-04, 01:45:04,VALID,999.118,VALID,0,VALID,90.3194,VALID,0,VALID,22.3763,VALID,36,VALID,0.828125,
2009-03-04, 01:46:04,VALID,999.108,VALID,0,VALID,90.4873,VALID,0,VALID,22.3763,VALID,35,VALID,0.778516,
2009-03-04, 01:47:04,VALID,999.101,VALID,0,VALID,90.762,VALID,0,VALID,22.3568,VALID,35,VALID,0.588672,
2009-03-04, 01:48:04,VALID,999.109,VALID,0,VALID,90.8611,VALID,0,VALID,22.2983,VALID,35,VALID,0.397266,
2009-03-04, 01:49:04,VALID,999.114,VALID,0,VALID,91.0977,VALID,0,VALID,22.2592,VALID,35,VALID,0.229297,
2009-03-04, 01:50:04,VALID,999.107,VALID,0,VALID,91.3342,VALID,0,VALID,22.2007,VALID,35,VALID,0.141797,
2009-03-04, 01:51:04,VALID,999.087,VALID,0,VALID,91.4639,VALID,0,VALID,22.1617,VALID,35,VALID,0,
2009-03-04, 01:52:04,VALID,999.081,VALID,0,VALID,91.6546,VALID,0,VALID,22.1634,VALID,35,VALID,0,
2009-03-04, 01:53:04,VALID,999.106,VALID,0,VALID,91.8988,VALID,0,VALID,22.1227,VALID,35,VALID,0.247656,
2009-03-04, 01:54:04,VALID,999.091,VALID,0,VALID,91.9751,VALID,0,VALID,22.1032,VALID,35,VALID,0.306641,
2009-03-04, 01:55:04,VALID,999.072,VALID,0,VALID,92.0895,VALID,0,VALID,22.0642,VALID,35,VALID,0.255078,
2009-03-04, 01:56:04,VALID,999.047,VALID,0,VALID,92.3489,VALID,0,VALID,22.0447,VALID,35,VALID,0.391797,
2009-03-04, 01:57:04,VALID,999.063,VALID,0,VALID,92.6846,VALID,0,VALID,22.0447,VALID,35,VALID,0.473828,
2009-03-04, 01:58:04,VALID,999.026,VALID,0,VALID,92.7609,VALID,0,VALID,22.0447,VALID,35,VALID,0.44375,
2009-03-04, 01:59:04,VALID,998.994,VALID,0,VALID,92.8754,VALID,0,VALID,22.0447,VALID,35,VALID,0.494141,
2009-03-04, 02:00:04,VALID,998.995,VALID,0,VALID,92.944,VALID,0.112286,VALID,22.0447,VALID,35,VALID,0.396484,
2009-03-04, 02:01:04,VALID,998.966,VALID,0,VALID,93.0203,VALID,0,VALID,22.0642,VALID,35,VALID,0.308594,
2009-03-04, 02:02:04,VALID,998.943,VALID,0,VALID,93.0661,VALID,0,VALID,22.0642,VALID,35,VALID,0.338281,
2009-03-04, 02:03:04,VALID,998.95,VALID,0,VALID,93.0127,VALID,0,VALID,22.043,VALID,35,VALID,0.403516,
2009-03-04, 02:04:04,VALID,998.898,VALID,0,VALID,92.8143,VALID,0,VALID,22.0642,VALID,36,VALID,0.494141,
2009-03-04, 02:05:04,VALID,998.912,VALID,0,VALID,92.5473,VALID,0,VALID,22.0252,VALID,42,VALID,0.614453,
2009-03-04, 02:06:04,VALID,998.911,VALID,0,VALID,92.4176,VALID,0,VALID,22.0252,VALID,42,VALID,0.444141,
2009-03-04, 02:07:04,VALID,998.874,VALID,0,VALID,92.4557,VALID,0,VALID,22.0057,VALID,42,VALID,0.480859,
2009-03-04, 02:08:04,VALID,998.859,VALID,0,VALID,92.4863,VALID,0,VALID,22.0057,VALID,42,VALID,0.445703,
2009-03-04, 02:09:04,VALID,998.837,VALID,0,VALID,92.616,VALID,0,VALID,22.0057,VALID,42,VALID,0.507422,
2009-03-04, 02:10:04,VALID,998.862,VALID,0,VALID,92.5702,VALID,0,VALID,22.0252,VALID,42,VALID,0.464844,
2009-03-04, 02:11:04,VALID,998.86,VALID,0,VALID,92.5168,VALID,0,VALID,22.0252,VALID,42,VALID,0.430859,
2009-03-04, 02:12:04,VALID,998.86,VALID,0,VALID,92.5015,VALID,0,VALID,22.0447,VALID,42,VALID,0.412109,
2009-03-04, 02:13:04,VALID,998.862,VALID,0,VALID,92.616,VALID,0,VALID,22.0252,VALID,42,VALID,0.419922,
2009-03-04, 02:14:04,VALID,998.833,VALID,0,VALID,92.677,VALID,0,VALID,22.0447,VALID,42,VALID,0.469531,
2009-03-04, 02:15:04,VALID,998.839,VALID,0,VALID,92.7533,VALID,0.112286,VALID,22.0642,VALID,42,VALID,0.469141,
2009-03-04, 02:16:04,VALID,998.821,VALID,0,VALID,92.822,VALID,0,VALID,22.0642,VALID,42,VALID,0.471875,
2009-03-04, 02:17:04,VALID,998.791,VALID,0,VALID,92.944,VALID,0,VALID,22.043,VALID,42,VALID,0.545703,
2009-03-04, 02:18:04,VALID,998.797,VALID,0,VALID,92.7533,VALID,0,VALID,22.0642,VALID,44,VALID,0.460938,
2009-03-04, 02:19:04,VALID,998.773,VALID,0,VALID,92.7151,VALID,0,VALID,22.0642,VALID,62,VALID,0.402734,
2009-03-04, 02:20:04,VALID,998.759,VALID,0,VALID,92.7609,VALID,0,VALID,22.0642,VALID,91,VALID,0.383203,
2009-03-04, 02:21:04,VALID,998.727,VALID,0,VALID,92.8296,VALID,0,VALID,22.0642,VALID,93,VALID,0.53125,
2009-03-04, 02:22:04,VALID,998.73,VALID,0,VALID,92.8525,VALID,0,VALID,22.0447,VALID,94,VALID,0.645312,
2009-03-04, 02:23:04,VALID,998.739,VALID,0,VALID,92.8067,VALID,0,VALID,22.0447,VALID,116,VALID,0.269531,
2009-03-04, 02:24:04,VALID,998.73,VALID,0,VALID,92.822,VALID,0,VALID,22.0447,VALID,116,VALID,0.396094,
2009-03-04, 02:25:04,VALID,998.775,VALID,0,VALID,92.883,VALID,0,VALID,22.0447,VALID,116,VALID,0.104297,
2009-03-04, 02:26:04,VALID,998.752,VALID,0,VALID,92.9974,VALID,0,VALID,22.0447,VALID,116,VALID,0.318359,
2009-03-04, 02:27:04,VALID,998.789,VALID,0,VALID,93.1195,VALID,0,VALID,22.0447,VALID,116,VALID,0.258594,
2009-03-04, 02:28:04,VALID,998.778,VALID,0,VALID,93.1577,VALID,0,VALID,22.0642,VALID,116,VALID,0.281641,
2009-03-04, 02:29:04,VALID,998.802,VALID,0,VALID,93.1271,VALID,0,VALID,22.1032,VALID,116,VALID,0.244531,
2009-03-04, 02:30:04,VALID,998.819,VALID,0,VALID,93.028,VALID,0,VALID,22.0837,VALID,116,VALID,0.117969,
2009-03-04, 02:31:04,VALID,998.792,VALID,0,VALID,92.9822,VALID,0,VALID,22.0837,VALID,116,VALID,0.1,
2009-03-04, 02:32:04,VALID,998.809,VALID,0,VALID,92.9517,VALID,0,VALID,22.0837,VALID,116,VALID,0,
2009-03-04, 02:33:04,VALID,998.792,VALID,0,VALID,92.9211,VALID,0,VALID,22.0642,VALID,116,VALID,0,
2009-03-04, 02:34:04,VALID,998.796,VALID,0,VALID,92.9898,VALID,0,VALID,22.0447,VALID,116,VALID,0.101563,
2009-03-04, 02:35:04,VALID,998.781,VALID,0,VALID,93.0508,VALID,0,VALID,22.0642,VALID,116,VALID,0.288672,
2009-03-04, 02:36:04,VALID,998.783,VALID,0,VALID,92.9898,VALID,0,VALID,22.0659,VALID,116,VALID,0,
2009-03-04, 02:37:04,VALID,998.801,VALID,0,VALID,93.0508,VALID,0,VALID,22.0659,VALID,116,VALID,0,
2009-03-04, 02:38:04,VALID,998.826,VALID,0,VALID,93.1424,VALID,0,VALID,22.0447,VALID,116,VALID,0.0691406,
2009-03-04, 02:39:04,VALID,998.826,VALID,0,VALID,93.1577,VALID,0,VALID,22.0854,VALID,114,VALID,0.352734,
2009-03-04, 02:40:04,VALID,998.823,VALID,0,VALID,93.1805,VALID,0,VALID,22.0854,VALID,86,VALID,0.689062,
2009-03-04, 02:41:04,VALID,998.827,VALID,0,VALID,93.089,VALID,0,VALID,22.1049,VALID,52,VALID,0.605859,
2009-03-04, 02:42:04,VALID,998.862,VALID,0,VALID,92.8754,VALID,0,VALID,22.0837,VALID,52,VALID,0.594141,
2009-03-04, 02:43:04,VALID,998.859,VALID,0,VALID,92.7228,VALID,0,VALID,22.1049,VALID,52,VALID,0.613672,
2009-03-04, 02:44:04,VALID,998.864,VALID,0,VALID,92.7304,VALID,0,VALID,22.0854,VALID,52,VALID,0.600781,
2009-03-04, 02:45:04,VALID,998.862,VALID,0,VALID,92.7533,VALID,0,VALID,22.0854,VALID,52,VALID,0.770703,
2009-03-04, 02:46:04,VALID,998.852,VALID,0,VALID,92.7075,VALID,0,VALID,22.1049,VALID,51,VALID,0.819141,
2009-03-04, 02:47:04,VALID,998.878,VALID,0,VALID,92.616,VALID,0,VALID,22.1244,VALID,43,VALID,0.735156,
2009-03-04, 02:48:04,VALID,998.872,VALID,0,VALID,92.5397,VALID,0,VALID,22.1439,VALID,43,VALID,0.739844,
2009-03-04, 02:49:04,VALID,998.866,VALID,0,VALID,92.5473,VALID,0,VALID,22.1244,VALID,43,VALID,0.659766,
2009-03-04, 02:50:04,VALID,998.91,VALID,0,VALID,92.5854,VALID,0,VALID,22.1244,VALID,43,VALID,0.592969,
2009-03-04, 02:51:04,VALID,998.899,VALID,0,VALID,92.5778,VALID,0,VALID,22.1422,VALID,43,VALID,0.593359,
2009-03-04, 02:52:04,VALID,998.873,VALID,0,VALID,92.7075,VALID,0,VALID,22.1422,VALID,43,VALID,0.593359,
2009-03-04, 02:53:04,VALID,998.915,VALID,0,VALID,92.5854,VALID,0.112286,VALID,22.1227,VALID,43,VALID,0.485938,
2009-03-04, 02:54:04,VALID,998.892,VALID,0,VALID,92.5702,VALID,0,VALID,22.1032,VALID,42,VALID,0.63125,
2009-03-04, 02:55:04,VALID,998.884,VALID,0,VALID,92.7685,VALID,0.112286,VALID,22.0837,VALID,42,VALID,0.617578,
2009-03-04, 02:56:04,VALID,998.867,VALID,0,VALID,92.7762,VALID,0,VALID,22.0642,VALID,38,VALID,0.717188,
2009-03-04, 02:57:04,VALID,998.891,VALID,0,VALID,92.7991,VALID,0,VALID,22.0447,VALID,37,VALID,0.682422,
2009-03-04, 02:58:04,VALID,998.892,VALID,0,VALID,92.8143,VALID,0,VALID,22.0269,VALID,35,VALID,0.730078,
2009-03-04, 02:59:04,VALID,998.906,VALID,0,VALID,93.1882,VALID,0,VALID,22.0057,VALID,32,VALID,0.892187,
2009-03-04, 03:00:04,VALID,998.893,VALID,0,VALID,93.2645,VALID,0,VALID,22.0057,VALID,32,VALID,0.924219,
2009-03-04, 03:01:04,VALID,998.935,VALID,0,VALID,93.4018,VALID,0,VALID,22.0057,VALID,30,VALID,0.891797,
2009-03-04, 03:02:04,VALID,998.922,VALID,0,VALID,93.1653,VALID,0,VALID,22.0057,VALID,27,VALID,1.08555,
2009-03-04, 03:03:04,VALID,998.931,VALID,0,VALID,93.1805,VALID,0,VALID,21.9862,VALID,27,VALID,1.04141,
2009-03-04, 03:04:04,VALID,998.897,VALID,0,VALID,93.3484,VALID,0,VALID,21.9667,VALID,27,VALID,0.939844,
2009-03-04, 03:05:04,VALID,998.931,VALID,0,VALID,93.3789,VALID,0,VALID,21.9472,VALID,27,VALID,0.974219,
2009-03-04, 03:06:04,VALID,998.921,VALID,0,VALID,93.3866,VALID,0,VALID,21.9472,VALID,28,VALID,0.756641,
2009-03-04, 03:07:04,VALID,998.918,VALID,0,VALID,93.4705,VALID,0,VALID,21.9667,VALID,31,VALID,0.735156,
2009-03-04, 03:08:04,VALID,998.908,VALID,0,VALID,93.5468,VALID,0,VALID,21.9878,VALID,31,VALID,0.76875,
2009-03-04, 03:09:04,VALID,998.907,VALID,0,VALID,93.5544,VALID,0,VALID,21.9667,VALID,31,VALID,0.660937,
2009-03-04, 03:10:04,VALID,998.873,VALID,0,VALID,93.6688,VALID,0,VALID,21.9667,VALID,31,VALID,0.505078,
2009-03-04, 03:11:04,VALID,998.879,VALID,0,VALID,93.7299,VALID,0,VALID,21.9472,VALID,31,VALID,0.439844,
2009-03-04, 03:12:04,VALID,998.846,VALID,0,VALID,93.7833,VALID,0,VALID,21.9878,VALID,31,VALID,0.466406,
2009-03-04, 03:13:04,VALID,998.858,VALID,0,VALID,93.8367,VALID,0,VALID,21.9667,VALID,31,VALID,0.419922,
2009-03-04, 03:14:04,VALID,998.881,VALID,0,VALID,93.8291,VALID,0,VALID,22.0074,VALID,31,VALID,0.380859,
2009-03-04, 03:15:04,VALID,998.864,VALID,0,VALID,93.852,VALID,0,VALID,22.0057,VALID,31,VALID,0.388281,
2009-03-04, 03:16:04,VALID,998.888,VALID,0,VALID,93.7223,VALID,0,VALID,22.0057,VALID,31,VALID,0.360547,
2009-03-04, 03:17:04,VALID,998.899,VALID,0,VALID,93.7451,VALID,0,VALID,21.9862,VALID,31,VALID,0.387109,
2009-03-04, 03:18:04,VALID,998.884,VALID,0,VALID,93.768,VALID,0,VALID,22.0057,VALID,32,VALID,0.482812,
2009-03-04, 03:19:04,VALID,998.919,VALID,0,VALID,93.6917,VALID,0,VALID,22.0057,VALID,32,VALID,0.553516,
2009-03-04, 03:20:04,VALID,998.938,VALID,0,VALID,93.7146,VALID,0,VALID,21.9862,VALID,32,VALID,0.560938,
2009-03-04, 03:21:04,VALID,998.929,VALID,0,VALID,93.7833,VALID,0,VALID,21.9862,VALID,32,VALID,0.587891,
2009-03-04, 03:22:04,VALID,998.939,VALID,0,VALID,93.8977,VALID,0.112286,VALID,22.0057,VALID,32,VALID,0.472266,
2009-03-04, 03:23:04,VALID,998.939,VALID,0,VALID,93.8825,VALID,0,VALID,22.0252,VALID,32,VALID,0.438281,
2009-03-04, 03:24:04,VALID,998.959,VALID,0,VALID,93.8138,VALID,0,VALID,22.0447,VALID,32,VALID,0.448828,
2009-03-04, 03:25:04,VALID,998.947,VALID,0,VALID,93.562,VALID,0,VALID,22.0447,VALID,32,VALID,0.297266,
2009-03-04, 03:26:04,VALID,998.956,VALID,0,VALID,93.7528,VALID,0,VALID,22.0235,VALID,33,VALID,0.467578,
2009-03-04, 03:27:04,VALID,998.962,VALID,0,VALID,93.768,VALID,0,VALID,22.0447,VALID,90,VALID,0.224219,
2009-03-04, 03:28:04,VALID,998.943,VALID,0,VALID,93.768,VALID,0,VALID,22.043,VALID,90,VALID,0.407422,
2009-03-04, 03:29:04,VALID,998.917,VALID,0,VALID,93.7528,VALID,0,VALID,22.0837,VALID,90,VALID,0.448047,
2009-03-04, 03:30:04,VALID,998.936,VALID,0,VALID,93.7604,VALID,0,VALID,22.1032,VALID,90,VALID,0.453125,
2009-03-04, 03:31:04,VALID,998.944,VALID,0,VALID,93.6231,VALID,0,VALID,22.1227,VALID,90,VALID,0.496484,
2009-03-04, 03:32:04,VALID,998.933,VALID,0,VALID,93.5163,VALID,0,VALID,22.121,VALID,90,VALID,0.381641,
2009-03-04, 03:33:04,VALID,998.963,VALID,0,VALID,93.4476,VALID,0,VALID,22.1422,VALID,67,VALID,0.521484,
2009-03-04, 03:34:04,VALID,998.99,VALID,0,VALID,93.3713,VALID,0,VALID,22.1422,VALID,42,VALID,0.628125,
2009-03-04, 03:35:04,VALID,998.973,VALID,0,VALID,93.4705,VALID,0,VALID,22.1422,VALID,42,VALID,0.512109,
2009-03-04, 03:36:04,VALID,999.008,VALID,0,VALID,93.4934,VALID,0,VALID,22.1617,VALID,42,VALID,0.444531,
2009-03-04, 03:37:04,VALID,999.006,VALID,0,VALID,93.4705,VALID,0,VALID,22.1617,VALID,42,VALID,0.482812,
2009-03-04, 03:38:04,VALID,999.026,VALID,0,VALID,93.4781,VALID,0,VALID,22.1422,VALID,42,VALID,0.526953,
2009-03-04, 03:39:04,VALID,999.045,VALID,0,VALID,93.44,VALID,0,VALID,22.1422,VALID,42,VALID,0.484766,
2009-03-04, 03:40:04,VALID,999.082,VALID,0,VALID,93.3942,VALID,0,VALID,22.1227,VALID,42,VALID,0.426953,
2009-03-04, 03:41:04,VALID,999.06,VALID,0,VALID,93.3866,VALID,0,VALID,22.1032,VALID,42,VALID,0.295703,
2009-03-04, 03:42:04,VALID,999.074,VALID,0,VALID,93.44,VALID,0,VALID,22.0837,VALID,42,VALID,0.164844,
2009-03-04, 03:43:04,VALID,999.099,VALID,0,VALID,93.4476,VALID,0,VALID,22.0837,VALID,42,VALID,0.0105469,
2009-03-04, 03:44:04,VALID,999.106,VALID,0,VALID,93.501,VALID,0,VALID,22.0642,VALID,42,VALID,0.00234375,
2009-03-04, 03:45:04,VALID,999.111,VALID,0,VALID,93.8672,VALID,0,VALID,22.1032,VALID,110,VALID,0.3125,
2009-03-04, 03:46:04,VALID,999.128,VALID,0,VALID,93.8748,VALID,0,VALID,22.1422,VALID,111,VALID,0.21875,